Costa Pacifica — ICJA — position and weather

sailwx.info

Track history (hours):
 
Tides and Currents Weather Stations Pressure Air Temp Water Temp Dewpoint Dewpoint Depression Visibility Wind Speed Wind Dir Waves Ship Positions

Costa Pacifica

Last reported at 2017-Mar-27 06:30 UTC. Time now 2017-Mar-27 06:51 UTC.
Position N 43°21' E 005°20'.

Length 290 m; draft 8.3 m.

Type: Ship. MMSI: 247258100.

Date/timePositionNaut miles runAvg speedWind from/ knotsBaromVisibWave heightAir tempDewpointWater temp
2017-Mar-27 06:30N 43°21' E 005°20'0 0.0
2017-Mar-27 05:33N 43°21' E 005°20'8213.7
2017-Mar-26 23:33N 43°17' E 007°12'2221.6
2017-Mar-26 22:33N 43°31' E 007°35'2221.9
2017-Mar-26 21:34N 43°45' E 007°58'2121.3
2017-Mar-26 20:33N 44°01' E 008°18'1918.7
2017-Mar-26 19:34N 44°17' E 008°31'2 2.2
2017-Mar-26 18:32N 44°19' E 008°29'0 0.0
2017-Mar-26 17:26N 44°19' E 008°29'0 0.0
2017-Mar-26 16:31N 44°19' E 008°29'0 0.0
2017-Mar-26 15:31N 44°19' E 008°29'0 0.0
2017-Mar-26 14:30N 44°19' E 008°29'0 0.0
2017-Mar-26 13:30N 44°19' E 008°29'0 0.0
2017-Mar-26 12:33N 44°19' E 008°29'0 0.0
2017-Mar-26 11:32N 44°19' E 008°29'0 0.0
2017-Mar-26 10:32N 44°19' E 008°29'0 0.0
2017-Mar-26 09:31N 44°19' E 008°29'0 0.0
2017-Mar-26 08:31N 44°19' E 008°29'0 0.0
2017-Mar-26 07:33N 44°19' E 008°29'0 0.0
2017-Mar-26 06:33N 44°19' E 008°29'0 0.0
2017-Mar-26 05:33N 44°19' E 008°29'7 6.7
2017-Mar-26 04:33N 44°14' E 008°36'1818.1
2017-Mar-26 03:33N 43°59' E 008°49'1919.0
2017-Mar-26 02:33N 43°43' E 009°03'1919.2
2017-Mar-26 01:33N 43°26' E 009°17'2020.2
2017-Mar-26 00:33N 43°10' E 009°33'2820.9
2017-Mar-25 23:14N 42°44' E 009°48'118 5.4
2017-Mar-25 01:17N 40°59' E 010°58'3517.7
2017-Mar-24 23:19N 40°28' E 010°37'9419.3
2017-Mar-24 18:27N 39°04' E 009°41'1516.1
2017-Mar-24 17:33N 39°02' E 009°22'1615.6
2017-Mar-24 16:33N 39°11' E 009°06'1 1.3
2017-Mar-24 15:32N 39°13' E 009°06'0 0.0
2017-Mar-24 14:32N 39°13' E 009°06'0 0.0
2017-Mar-24 13:32N 39°13' E 009°06'0 0.0
2017-Mar-24 12:31N 39°13' E 009°06'0 0.0
2017-Mar-24 11:31N 39°13' E 009°06'0 0.0
2017-Mar-24 10:33N 39°13' E 009°06'0 0.0
2017-Mar-24 09:33N 39°13' E 009°06'0 0.0
2017-Mar-24 08:32N 39°13' E 009°06'0 0.0
2017-Mar-24 07:32N 39°13' E 009°06'0 0.3
2017-Mar-24 06:33N 39°12' E 009°07'7 6.8
2017-Mar-24 05:33N 39°06' E 009°07'1413.5
2017-Mar-24 04:32N 38°54' E 008°58'1212.0
2017-Mar-24 03:33N 38°48' E 008°45'2811.9
2017-Mar-24 01:10N 38°48' E 008°08'18512.3
2017-Mar-23 10:07N 39°01' E 004°11'712.9
2017-Mar-23 09:32N 39°01' E 004°01'1312.8
2017-Mar-23 08:33N 39°02' E 003°45'1312.5
2017-Mar-23 07:33N 39°03' E 003°29'1312.6
2017-Mar-23 06:33N 39°04' E 003°13'1312.6
2017-Mar-23 05:33N 39°05' E 002°57'1212.1
2017-Mar-23 04:33N 39°06' E 002°41'1312.8
2017-Mar-23 03:33N 39°08' E 002°25'1312.9
2017-Mar-23 02:33N 39°10' E 002°08'1413.7
2017-Mar-23 01:33N 39°11' E 001°51'1413.6
2017-Mar-23 00:33N 39°13' E 001°33'1413.6
2017-Mar-22 23:33N 39°15' E 001°16'1312.7
2017-Mar-22 22:33N 39°17' E 000°59'1312.6
2017-Mar-22 21:33N 39°19' E 000°43'1212.5
2017-Mar-22 20:33N 39°20' E 000°27'2512.5
2017-Mar-22 18:31N 39°23' W 000°05'1111.9
2017-Mar-22 17:33N 39°27' W 000°19'0 0.3
2017-Mar-22 16:19N 39°27' W 000°19'0 0.0
2017-Mar-22 15:31N 39°27' W 000°19'0 0.0
2017-Mar-22 14:27N 39°27' W 000°19'0 0.0
2017-Mar-22 13:24N 39°27' W 000°19'0 0.0
2017-Mar-22 12:32N 39°27' W 000°19'0 0.0
2017-Mar-22 11:32N 39°27' W 000°19'0 0.0
2017-Mar-22 10:31N 39°27' W 000°19'0 0.0
2017-Mar-22 09:25N 39°27' W 000°19'0 0.0
2017-Mar-22 08:31N 39°27' W 000°19'0 0.0
2017-Mar-22 07:30N 39°27' W 000°19'0 0.1
2017-Mar-22 06:33N 39°27' W 000°19'5 5.3
2017-Mar-22 05:33N 39°24' W 000°13'5312.8
2017-Mar-22 01:26N 39°38' E 000°53'1113.1
2017-Mar-22 00:33N 39°48' E 001°01'1313.2
2017-Mar-21 23:33N 39°59' E 001°10'1313.1
2017-Mar-21 22:33N 40°10' E 001°18'1312.9
2017-Mar-21 21:33N 40°21' E 001°27'1514.9
2017-Mar-21 20:33N 40°34' E 001°37'1818.4
2017-Mar-21 19:33N 40°50' E 001°50'1818.3
2017-Mar-21 18:33N 41°06' E 002°02'1515.0
2017-Mar-21 17:33N 41°20' E 002°10'2 1.5
2017-Mar-21 16:23N 41°21' E 002°11'0 0.0
2017-Mar-21 12:15N 41°21' E 002°11'0 0.0
2017-Mar-21 11:27N 41°21' E 002°11'0 0.0
2017-Mar-21 09:26N 41°21' E 002°11'0 0.0
2017-Mar-21 07:13N 41°21' E 002°11'0 0.0
2017-Mar-21 06:33N 41°21' E 002°11'5 4.1
2017-Mar-21 05:25N 41°17' E 002°11'1112.9
2017-Mar-21 04:33N 41°21' E 002°25'1512.9
2017-Mar-21 03:21N 41°30' E 002°42'1112.9
2017-Mar-21 02:30N 41°36' E 002°54'1212.8
2017-Mar-21 01:33N 41°43' E 003°08'5313.2
2017-Mar-20 21:33N 42°20' E 003°59'4016.4
2017-Mar-20 19:06N 42°49' E 004°36'2918.4
2017-Mar-20 17:33N 43°10' E 005°03'1615.6
2017-Mar-20 16:33N 43°21' E 005°18'1 1.3
2017-Mar-20 15:31N 43°21' E 005°20'0 0.0
2017-Mar-20 14:31N 43°21' E 005°20'0 0.0
2017-Mar-20 13:30N 43°21' E 005°20'0 0.0
2017-Mar-20 12:33N 43°21' E 005°20'0 0.0
2017-Mar-20 11:29N 43°21' E 005°20'0 0.0
2017-Mar-20 10:29N 43°21' E 005°20'0 0.0
2017-Mar-20 09:28N 43°21' E 005°20'0 0.0
2017-Mar-20 08:31N 43°21' E 005°20'0 0.0
2017-Mar-20 07:31N 43°21' E 005°20'0 0.5
2017-Mar-20 06:34N 43°21' E 005°19'9 8.9
2017-Mar-20 05:33N 43°15' E 005°10'8612.2
2017-Mar-19 22:33N 43°09' E 007°07'1919.1
2017-Mar-19 21:33N 43°22' E 007°27'1919.2
2017-Mar-19 20:33N 43°35' E 007°46'2019.6
2017-Mar-19 19:33N 43°48' E 008°05'1918.7
2017-Mar-19 18:33N 44°03' E 008°22'1616.4
2017-Mar-19 17:33N 44°18' E 008°32'2 1.9
2017-Mar-19 16:31N 44°19' E 008°29'0 0.0
2017-Mar-19 15:33N 44°19' E 008°29'0 0.0
2017-Mar-19 14:33N 44°19' E 008°29'0 0.0
2017-Mar-19 13:32N 44°19' E 008°29'0 0.0
2017-Mar-19 12:32N 44°19' E 008°29'0 0.0
2017-Mar-19 11:31N 44°19' E 008°29'0 0.0
2017-Mar-19 10:31N 44°19' E 008°29'0 0.0
2017-Mar-19 09:33N 44°19' E 008°29'0 0.0
2017-Mar-19 08:30N 44°19' E 008°29'0 0.0
2017-Mar-19 07:33N 44°19' E 008°29'0 0.5
2017-Mar-19 06:34N 44°19' E 008°30'1010.3
2017-Mar-19 05:34N 44°09' E 008°29'1413.8
2017-Mar-19 04:33N 43°56' E 008°21'1212.3
2017-Mar-19 03:33N 43°45' E 008°14'1211.7
2017-Mar-19 02:33N 43°36' E 008°03'1818.0
2017-Mar-19 01:33N 43°26' E 007°42'1818.3
2017-Mar-19 00:33N 43°16' E 007°22'1918.6
2017-Mar-18 23:33N 43°05' E 007°01'1817.6
2017-Mar-18 22:32N 42°55' E 006°41'6716.8
2017-Mar-18 18:33N 43°11' E 005°12'1211.8
2017-Mar-18 17:33N 43°21' E 005°20'0 0.3
2017-Mar-18 16:31N 43°21' E 005°20'0 0.0
2017-Mar-18 15:31N 43°21' E 005°20'0 0.0
2017-Mar-18 14:33N 43°21' E 005°20'0 0.0
2017-Mar-18 13:33N 43°21' E 005°20'0 0.0
2017-Mar-18 12:32N 43°21' E 005°20'0 0.0
2017-Mar-18 11:29N 43°21' E 005°20'0 0.0
2017-Mar-18 10:32N 43°21' E 005°20'0 0.0
2017-Mar-18 09:31N 43°21' E 005°20'0 0.0
2017-Mar-18 08:31N 43°21' E 005°20'0 0.0
2017-Mar-18 07:33N 43°21' E 005°20'4 3.7
2017-Mar-18 06:33N 43°20' E 005°15'1515.0
2017-Mar-18 05:33N 43°09' E 005°01'9412.8
2017-Mar-17 22:14N 42°02' E 003°33'1718.6
2017-Mar-17 21:20N 41°48' E 003°19'2118.8
2017-Mar-17 20:14N 41°37' E 002°55'1319.1
2017-Mar-17 19:33N 41°30' E 002°41'1919.0
2017-Mar-17 18:33N 41°20' E 002°20'7 6.9
2017-Mar-17 17:33N 41°22' E 002°11'0 0.1
2017-Mar-17 14:26N 41°22' E 002°11'0 0.0
2017-Mar-17 13:31N 41°22' E 002°11'0 0.0
2017-Mar-17 12:31N 41°22' E 002°11'0 0.0
2017-Mar-17 11:24N 41°22' E 002°11'0 0.0
2017-Mar-17 10:33N 41°22' E 002°11'0 0.0
2017-Mar-17 09:30N 41°22' E 002°11'0 0.0
2017-Mar-17 08:32N 41°22' E 002°11'0 0.0
2017-Mar-17 07:33N 41°22' E 002°11'4 4.0
2017-Mar-17 06:32N 41°18' E 002°11'  
Track history (hours):
 
Tides and Currents Weather Stations Pressure Air Temp Water Temp Dewpoint Dewpoint Depression Visibility Wind Speed Wind Dir Waves Ship Positions

Costa Pacifica

Last reported at 2017-Mar-27 06:30 UTC. Time now 2017-Mar-27 06:51 UTC.
Position N 43°21' E 005°20'.

Length 290 m; draft 8.3 m.

Type: Ship. MMSI: 247258100.

Date/timePositionNaut miles runAvg speedWind from/ knotsBaromVisibWave heightAir tempDewpointWater temp
2017-Mar-27 06:30N 43°21' E 005°20'0 0.0
2017-Mar-27 05:33N 43°21' E 005°20'8213.7
2017-Mar-26 23:33N 43°17' E 007°12'2221.6
2017-Mar-26 22:33N 43°31' E 007°35'2221.9
2017-Mar-26 21:34N 43°45' E 007°58'2121.3
2017-Mar-26 20:33N 44°01' E 008°18'1918.7
2017-Mar-26 19:34N 44°17' E 008°31'2 2.2
2017-Mar-26 18:32N 44°19' E 008°29'0 0.0
2017-Mar-26 17:26N 44°19' E 008°29'0 0.0
2017-Mar-26 16:31N 44°19' E 008°29'0 0.0
2017-Mar-26 15:31N 44°19' E 008°29'0 0.0
2017-Mar-26 14:30N 44°19' E 008°29'0 0.0
2017-Mar-26 13:30N 44°19' E 008°29'0 0.0
2017-Mar-26 12:33N 44°19' E 008°29'0 0.0
2017-Mar-26 11:32N 44°19' E 008°29'0 0.0
2017-Mar-26 10:32N 44°19' E 008°29'0 0.0
2017-Mar-26 09:31N 44°19' E 008°29'0 0.0
2017-Mar-26 08:31N 44°19' E 008°29'0 0.0
2017-Mar-26 07:33N 44°19' E 008°29'0 0.0
2017-Mar-26 06:33N 44°19' E 008°29'0 0.0
2017-Mar-26 05:33N 44°19' E 008°29'7 6.7
2017-Mar-26 04:33N 44°14' E 008°36'1818.1
2017-Mar-26 03:33N 43°59' E 008°49'1919.0
2017-Mar-26 02:33N 43°43' E 009°03'1919.2
2017-Mar-26 01:33N 43°26' E 009°17'2020.2
2017-Mar-26 00:33N 43°10' E 009°33'2820.9
2017-Mar-25 23:14N 42°44' E 009°48'118 5.4
2017-Mar-25 01:17N 40°59' E 010°58'3517.7
2017-Mar-24 23:19N 40°28' E 010°37'9419.3
2017-Mar-24 18:27N 39°04' E 009°41'1516.1
2017-Mar-24 17:33N 39°02' E 009°22'1615.6
2017-Mar-24 16:33N 39°11' E 009°06'1 1.3
2017-Mar-24 15:32N 39°13' E 009°06'0 0.0
2017-Mar-24 14:32N 39°13' E 009°06'0 0.0
2017-Mar-24 13:32N 39°13' E 009°06'0 0.0
2017-Mar-24 12:31N 39°13' E 009°06'0 0.0
2017-Mar-24 11:31N 39°13' E 009°06'0 0.0
2017-Mar-24 10:33N 39°13' E 009°06'0 0.0
2017-Mar-24 09:33N 39°13' E 009°06'0 0.0
2017-Mar-24 08:32N 39°13' E 009°06'0 0.0
2017-Mar-24 07:32N 39°13' E 009°06'0 0.3
2017-Mar-24 06:33N 39°12' E 009°07'7 6.8
2017-Mar-24 05:33N 39°06' E 009°07'1413.5
2017-Mar-24 04:32N 38°54' E 008°58'1212.0
2017-Mar-24 03:33N 38°48' E 008°45'2811.9
2017-Mar-24 01:10N 38°48' E 008°08'18512.3
2017-Mar-23 10:07N 39°01' E 004°11'712.9
2017-Mar-23 09:32N 39°01' E 004°01'1312.8
2017-Mar-23 08:33N 39°02' E 003°45'1312.5
2017-Mar-23 07:33N 39°03' E 003°29'1312.6
2017-Mar-23 06:33N 39°04' E 003°13'1312.6
2017-Mar-23 05:33N 39°05' E 002°57'1212.1
2017-Mar-23 04:33N 39°06' E 002°41'1312.8
2017-Mar-23 03:33N 39°08' E 002°25'1312.9
2017-Mar-23 02:33N 39°10' E 002°08'1413.7
2017-Mar-23 01:33N 39°11' E 001°51'1413.6
2017-Mar-23 00:33N 39°13' E 001°33'1413.6
2017-Mar-22 23:33N 39°15' E 001°16'1312.7
2017-Mar-22 22:33N 39°17' E 000°59'1312.6
2017-Mar-22 21:33N 39°19' E 000°43'1212.5
2017-Mar-22 20:33N 39°20' E 000°27'2512.5
2017-Mar-22 18:31N 39°23' W 000°05'1111.9
2017-Mar-22 17:33N 39°27' W 000°19'0 0.3
2017-Mar-22 16:19N 39°27' W 000°19'0 0.0
2017-Mar-22 15:31N 39°27' W 000°19'0 0.0
2017-Mar-22 14:27N 39°27' W 000°19'0 0.0
2017-Mar-22 13:24N 39°27' W 000°19'0 0.0
2017-Mar-22 12:32N 39°27' W 000°19'0 0.0
2017-Mar-22 11:32N 39°27' W 000°19'0 0.0
2017-Mar-22 10:31N 39°27' W 000°19'0 0.0
2017-Mar-22 09:25N 39°27' W 000°19'0 0.0
2017-Mar-22 08:31N 39°27' W 000°19'0 0.0
2017-Mar-22 07:30N 39°27' W 000°19'0 0.1
2017-Mar-22 06:33N 39°27' W 000°19'5 5.3
2017-Mar-22 05:33N 39°24' W 000°13'5312.8
2017-Mar-22 01:26N 39°38' E 000°53'1113.1
2017-Mar-22 00:33N 39°48' E 001°01'1313.2
2017-Mar-21 23:33N 39°59' E 001°10'1313.1
2017-Mar-21 22:33N 40°10' E 001°18'1312.9
2017-Mar-21 21:33N 40°21' E 001°27'1514.9
2017-Mar-21 20:33N 40°34' E 001°37'1818.4
2017-Mar-21 19:33N 40°50' E 001°50'1818.3
2017-Mar-21 18:33N 41°06' E 002°02'1515.0
2017-Mar-21 17:33N 41°20' E 002°10'2 1.5
2017-Mar-21 16:23N 41°21' E 002°11'0 0.0
2017-Mar-21 12:15N 41°21' E 002°11'0 0.0
2017-Mar-21 11:27N 41°21' E 002°11'0 0.0
2017-Mar-21 09:26N 41°21' E 002°11'0 0.0
2017-Mar-21 07:13N 41°21' E 002°11'0 0.0
2017-Mar-21 06:33N 41°21' E 002°11'5 4.1
2017-Mar-21 05:25N 41°17' E 002°11'1112.9
2017-Mar-21 04:33N 41°21' E 002°25'1512.9
2017-Mar-21 03:21N 41°30' E 002°42'1112.9
2017-Mar-21 02:30N 41°36' E 002°54'1212.8
2017-Mar-21 01:33N 41°43' E 003°08'5313.2
2017-Mar-20 21:33N 42°20' E 003°59'4016.4
2017-Mar-20 19:06N 42°49' E 004°36'2918.4
2017-Mar-20 17:33N 43°10' E 005°03'1615.6
2017-Mar-20 16:33N 43°21' E 005°18'1 1.3
2017-Mar-20 15:31N 43°21' E 005°20'0 0.0
2017-Mar-20 14:31N 43°21' E 005°20'0 0.0
2017-Mar-20 13:30N 43°21' E 005°20'0 0.0
2017-Mar-20 12:33N 43°21' E 005°20'0 0.0
2017-Mar-20 11:29N 43°21' E 005°20'0 0.0
2017-Mar-20 10:29N 43°21' E 005°20'0 0.0
2017-Mar-20 09:28N 43°21' E 005°20'0 0.0
2017-Mar-20 08:31N 43°21' E 005°20'0 0.0
2017-Mar-20 07:31N 43°21' E 005°20'0 0.5
2017-Mar-20 06:34N 43°21' E 005°19'9 8.9
2017-Mar-20 05:33N 43°15' E 005°10'8612.2
2017-Mar-19 22:33N 43°09' E 007°07'1919.1
2017-Mar-19 21:33N 43°22' E 007°27'1919.2
2017-Mar-19 20:33N 43°35' E 007°46'2019.6
2017-Mar-19 19:33N 43°48' E 008°05'1918.7
2017-Mar-19 18:33N 44°03' E 008°22'1616.4
2017-Mar-19 17:33N 44°18' E 008°32'2 1.9
2017-Mar-19 16:31N 44°19' E 008°29'0 0.0
2017-Mar-19 15:33N 44°19' E 008°29'0 0.0
2017-Mar-19 14:33N 44°19' E 008°29'0 0.0
2017-Mar-19 13:32N 44°19' E 008°29'0 0.0
2017-Mar-19 12:32N 44°19' E 008°29'0 0.0
2017-Mar-19 11:31N 44°19' E 008°29'0 0.0
2017-Mar-19 10:31N 44°19' E 008°29'0 0.0
2017-Mar-19 09:33N 44°19' E 008°29'0 0.0
2017-Mar-19 08:30N 44°19' E 008°29'0 0.0
2017-Mar-19 07:33N 44°19' E 008°29'0 0.5
2017-Mar-19 06:34N 44°19' E 008°30'1010.3
2017-Mar-19 05:34N 44°09' E 008°29'1413.8
2017-Mar-19 04:33N 43°56' E 008°21'1212.3
2017-Mar-19 03:33N 43°45' E 008°14'1211.7
2017-Mar-19 02:33N 43°36' E 008°03'1818.0
2017-Mar-19 01:33N 43°26' E 007°42'1818.3
2017-Mar-19 00:33N 43°16' E 007°22'1918.6
2017-Mar-18 23:33N 43°05' E 007°01'1817.6
2017-Mar-18 22:32N 42°55' E 006°41'6716.8
2017-Mar-18 18:33N 43°11' E 005°12'1211.8
2017-Mar-18 17:33N 43°21' E 005°20'0 0.3
2017-Mar-18 16:31N 43°21' E 005°20'0 0.0
2017-Mar-18 15:31N 43°21' E 005°20'0 0.0
2017-Mar-18 14:33N 43°21' E 005°20'0 0.0
2017-Mar-18 13:33N 43°21' E 005°20'0 0.0
2017-Mar-18 12:32N 43°21' E 005°20'0 0.0
2017-Mar-18 11:29N 43°21' E 005°20'0 0.0
2017-Mar-18 10:32N 43°21' E 005°20'0 0.0
2017-Mar-18 09:31N 43°21' E 005°20'0 0.0
2017-Mar-18 08:31N 43°21' E 005°20'0 0.0
2017-Mar-18 07:33N 43°21' E 005°20'4 3.7
2017-Mar-18 06:33N 43°20' E 005°15'1515.0
2017-Mar-18 05:33N 43°09' E 005°01'9412.8
2017-Mar-17 22:14N 42°02' E 003°33'1718.6
2017-Mar-17 21:20N 41°48' E 003°19'2118.8
2017-Mar-17 20:14N 41°37' E 002°55'1319.1
2017-Mar-17 19:33N 41°30' E 002°41'1919.0
2017-Mar-17 18:33N 41°20' E 002°20'7 6.9
2017-Mar-17 17:33N 41°22' E 002°11'0 0.1
2017-Mar-17 14:26N 41°22' E 002°11'0 0.0
2017-Mar-17 13:31N 41°22' E 002°11'0 0.0
2017-Mar-17 12:31N 41°22' E 002°11'0 0.0
2017-Mar-17 11:24N 41°22' E 002°11'0 0.0
2017-Mar-17 10:33N 41°22' E 002°11'0 0.0
2017-Mar-17 09:30N 41°22' E 002°11'0 0.0
2017-Mar-17 08:32N 41°22' E 002°11'0 0.0
2017-Mar-17 07:33N 41°22' E 002°11'4 4.0
2017-Mar-17 06:32N 41°18' E 002°11'  

Dump ship's entire track history